Regional Weather Roundup
Issued by NWS

Home | Current Version | Previous Version | Text Only | Print | Product List | Glossary Off
Versions: 1 2 3 4 5 6 7 8 9 10 11 12 13 14 15 16 17 18 19 20 21 22 23 24 25 26 27 28 29 30 31 32 33 34 35 36 37 38 39 40 41 42 43 44 45 46 47 48 49 50

000
ASUS43 KFSD 080102
RWRSD

WEATHER ROUNDUP FOR SOUTH DAKOTA
NATIONAL WEATHER SERVICE SIOUX FALLS SD
800 PM CDT TUE JUL 07 2015

NOTE: "FAIR" INDICATES FEW OR NO CLOUDS BELOW 12,000 FEET WITH NO
SIGNIFICANT WEATHER AND/OR OBSTRUCTIONS TO VISIBILITY.


SDZ001>005-009-010-012>017-080200-
NORTHWEST AND NORTH CENTRAL SOUTH DAKOTA

CITY           SKY/WX    TMP DP  RH WIND       PRES   REMARKS
BUFFALO          N/A     74  55  51 SW3       29.90R
FAITH            N/A     72  57  59 SE15G24   29.97
MOBRIDGE       SUNNY     74  57  55 SE20      29.99S
$$

SDZ012>016-024>037-041>051-057-063-072>074-080200-
SOUTHWEST AND SOUTH CENTRAL SOUTH DAKOTA

CITY           SKY/WX    TMP DP  RH WIND       PRES   REMARKS
RAPID CTY ARPT MOSUNNY   70  57  63 S14       30.00F
PIERRE         PTSUNNY   70  57  63 SE15      30.02S
CUSTER         MOSUNNY   62  52  69 S6        30.13R HAZE
ELLSWORTH AFB  MOSUNNY   72  58  62 S16G25    29.98S
PHILIP         MOSUNNY   74  56  53 S15       29.99F
PINE RIDGE     PTSUNNY   70  52  52 S9        30.05F
WINNER         FAIR      73  53  49 SE10      30.07S
$$

SDZ004>011-016>023-039-040-080200-
NORTHEAST SOUTH DAKOTA

CITY           SKY/WX    TMP DP  RH WIND       PRES   REMARKS
ABERDEEN       SUNNY     69  49  48 S7        30.06S
WATERTOWN      MOSUNNY   66  47  50 S7        30.09F
BROOKINGS      MOSUNNY   66  46  48 E5        30.11F
SISSETON         N/A     68  47  46 S9        30.07F
$$

SDZ017-020-022-023-036>040-048>070-080200-
SOUTHEAST SOUTH DAKOTA

CITY           SKY/WX    TMP DP  RH WIND       PRES   REMARKS
SIOUX FALLS    PTSUNNY   67  50  54 NE7       30.10F
HURON          PTSUNNY   68  46  45 S7        30.07F
MITCHELL       MOSUNNY   69  52  54 SE8       30.09S
YANKTON        MOSUNNY   66  54  63 E5        30.09S
$$

ABBREVIATIONS USED IN REMARKS
   TC - TEMPERATURE IN CELSIUS
  WCI - WIND CHILL INDEX
   HX - HEAT INDEX
  VSB - VISIBILITY




USA.gov is the U.S. government's official web portal to all federal, state and local government web resources and services.